Location: Newark
(43.6583°N, 1.6617°E)
Time: 07:04:57
(UTC+00:00)

Explorer 11/Cluster Stage 4 - All Passes

Search period start: 26 August 2019 00:00
Search period end: 05 September 2019 00:00
Orbit: 467 x 1260 km, 28.8° (Epoch: 25 August)

Date Brightness Start Highest point End Pass type
(mag) Time Alt. Az. Time Alt. Az. Time Alt. Az.
26 Aug - 09:04:20 10° SSW 09:09:46 21° SSE 09:15:29 10° ESE daylight
26 Aug - 10:51:28 10° SW 10:58:00 27° S 11:04:36 10° SE daylight
26 Aug - 12:40:14 10° WSW 12:46:18 23° SSW 12:52:07 10° SSE daylight
26 Aug - 14:32:10 10° SW 14:34:08 11° SSW 14:36:04 10° SSW daylight
27 Aug - 08:53:21 10° SSW 08:58:49 22° SSE 09:04:40 10° ESE daylight
27 Aug - 10:40:36 10° SW 10:47:03 27° S 10:53:41 10° SE daylight
27 Aug - 12:29:28 10° WSW 12:35:20 22° SSW 12:41:04 10° SSE daylight
28 Aug - 06:58:45 10° SSE 07:00:10 11° SSE 07:01:38 10° SE daylight
28 Aug - 08:42:26 10° SSW 08:47:53 22° SSE 08:53:48 10° ESE daylight
28 Aug - 10:29:47 10° SW 10:36:06 27° S 10:42:42 10° SE daylight
28 Aug - 12:18:44 10° WSW 12:24:22 20° SSW 12:29:56 10° SSE daylight
29 Aug - 06:47:09 10° S 06:49:15 11° SSE 06:51:27 10° SE daylight
29 Aug - 08:31:35 10° SW 08:36:58 23° SSE 08:42:53 10° ESE daylight
29 Aug - 10:19:01 10° SW 10:25:10 26° S 10:31:41 10° SE daylight
29 Aug - 12:08:06 10° WSW 12:13:24 19° SSW 12:18:43 10° SSE daylight
30 Aug - 06:35:53 10° S 06:38:21 12° SSE 06:40:58 10° SE daylight
30 Aug - 08:20:48 10° SW 08:26:04 23° S 08:31:55 10° ESE daylight
30 Aug - 10:08:19 10° WSW 10:14:14 25° S 10:20:36 10° SE daylight
30 Aug - 11:57:34 10° WSW 12:02:27 17° SSW 12:07:24 10° SSE daylight
31 Aug - 06:24:48 10° S 06:27:28 13° SSE 06:30:21 10° SE daylight
31 Aug - 08:10:05 10° SW 08:15:10 23° S 08:20:55 10° ESE daylight
31 Aug - 09:57:40 10° WSW 10:03:20 24° S 10:09:28 10° SE daylight
31 Aug - 11:47:10 10° SW 11:51:29 16° SSW 11:55:54 10° SSE daylight
01 Sep - 06:13:51 10° S 06:16:37 13° SSE 06:19:37 10° SE daylight
01 Sep - 07:59:24 10° SW 08:04:19 23° S 08:09:53 10° SE daylight
01 Sep - 09:47:05 10° SW 09:52:25 22° S 09:58:17 10° SE daylight
01 Sep - 11:36:57 10° SW 11:40:33 14° SSW 11:44:14 10° S daylight
02 Sep - 06:03:01 10° S 06:05:47 14° SSE 06:08:49 10° SE daylight
02 Sep - 07:48:47 10° SW 07:53:28 22° S 07:58:50 10° SE daylight
02 Sep - 09:36:34 10° SW 09:41:32 21° S 09:47:02 10° SE daylight
02 Sep - 11:27:06 10° SW 11:29:37 12° SSW 11:32:12 10° S daylight
03 Sep - 05:52:15 10° S 05:54:58 14° SSE 05:57:59 10° SE daylight
03 Sep - 07:38:13 10° SW 07:42:40 21° S 07:47:44 10° SE daylight
03 Sep - 09:26:08 10° SW 09:30:41 19° S 09:35:41 10° SSE daylight
04 Sep - 05:41:33 10° SSW 05:44:12 14° SSE 05:47:07 10° SE daylight
04 Sep - 07:27:42 10° SW 07:31:51 20° S 07:36:37 10° SE daylight
04 Sep - 09:15:49 10° SW 09:19:50 17° SSW 09:24:16 10° SSE daylight
